SCP
0 0 -0 -0 -0 -0 -0 -0 -0 -0 -0 -0 -0 -0 -0 -0 -0 -0 -0 -0 -0 -0 -0 -0 -0 -0 -0 -0 -0 -0 -0 -0 -0 -0 -0 -0 -0 -0 -0 -0 -0 -0 -0
0 0 -0 -0 -0 -0 -0 -0 -0 -0 -0 -0 -0 0 -0 -0 -0 -0 -0 -0 -0 -0 -0 -0 -0 -0 -0 -0 -0 -0 -0 -0 -0 -0 -0 -0 -0 -0 -0 -0 -0 -0 -0
-0 0 0 -0 -0 -0 -0 -0 -0 -0 -0 -0 -0 -0 -0 -0 -0 -0 -0 -0 -0 -0 -0 -0 -0 -0 -0 -0 -0 -0 -0 -0 -0 -0 -0 0 -0 -0 -0 -0 -0 -0 -0
-0 -0 0 -0 -0 -0 -0 -0 -0 -0 -0 -0 -0 -0 -0 -0 -0 -0 -0 -0 -0 -0 -0 -0 -0 -0 -0 -0 -0 -0 -0 -0 -0 -0 0 0 -0 -0 -0 -0 -0 -0 -0
-0 -0 0 -0 -0 -0 -0 -0 -0 -0 -0 -0 -0 -0 -0 -0 -0 -0 -0 -0 -0 -0 -0 -0 -0 -0 -0 -0 -0 -0 -0 -0 -0 -0 0 0 -0 -0 -0 -0 -0 -0 -0
-0 -0 -0 -0 -0 -0 -0 -0 -0 -0 -0 -0 -0 -0 -0 -0 -0 -0 -0 -0 -0 -0 -0 -0 -0 -0 -0 -0 -0 -0 -0 -0 -0 -0 -0 -0 -0 -0 -0 -0 -0 -0 -0
-0 -0 -0 -0 -0 -0 -0 -0 -0 -0 -0 -0 -0 -0 -0 -0 -0 -0 -0 -0 -0 -0 -0 -0 -0 -0 -0 -0 -0 -0 -0 -0 0 0 0 0 -0 -0 -0 -0 -0 -0 -0
-0 -0 -0 -0 -0 -0 -0 -0 -0 -0 -0 -0 -0 -0 -0 -0 -0 -0 -0 -0 -0 -0 -0 -0 -0 -0 -0 -0 -0 -0 -0 -0 -0 0 0 0 -0 -0 -0 -0 -0 -0 -0
-0 -0 -0 -0 -0 -0 -0 -0 -0 -0 -0 -0 -0 -0 -0 -0 -0 -0 -0 -0 -0 -0 -0 -0 -0 -0 -0 -0 -0 -0 -0 -0 0 0 -0 0 -0 -0 -0 -0 -0 -0 -0
-0 -0 -0 -0 0 0 0 -0 -0 -0 -0 -0 -0 -0 -0 -0 -0 -0 -0 -0 -0 -0 -0 -0 -0 -0 -0 -0 -0 -0 -0 -0 0 0 0 0 -0 -0 -0 -0 -0 -0 -0
0 -0 -0 -0 0 0 0 0 -0 -0 -0 -0 -0 -0 -0 0 0 0 0 -0 -0 -0 -0 -0 -0 -0 -0 -0 -0 -0 0 0 0 0 0 0 -0 -0 -0 -0 0 0 0
0 0 -0 0 -0 0 0 0 0 0 0 0 0 0 0 0 0 0 0 0 -0 -0 -0 -0 -0 0 0 0 0 0 0 0 0 0 0 0 -0 0 -0 0 0 0 0
0 0 0 -0 0 -0 0 0 0 0 0 0 0 0 0 0 0 0 0 0 0 0 0 0 0 0 0 0 0 0 0 0 0 0 0 0 -0 -0 0 0 0 0 0
0 0 0 -0 0 0 0 0 0 0 0 0 0 0 0 0 0 0 0 0 0 0 0 0 0 0 0 0 0 0 0 0 0 0 0 0 0 0 0 0 0 0 0
0 0 0 0 0 0 0 0 0 0 0 0 0 0 0 0 0 0 0 0 0 0 0 0 0 0 0 0 0 0 0 0 0 0 0 0 0 0 0 0 0 0 0
0 0 0 0 0 0 0 0 0 0 0 0 0 0 0 0 0 0 0 0 0 0 0 0 0 0 0 0 0 0 0 0 0 0 0 0 0 0 0 0 0 0 0
0 0 0 0 0 0 0 0 0 0 0 0 0 0 0 0 0 0 0 0 0 0 0 0 0 0 0 0 0 0 0 0 0 0 0 0 0 0 0 0 0 0 0
0 0 0 0 0 0 0 0 0 0 0 0 0 0 0 0 0 0 0 0 0 0 0 0 0 0 0 0 0 0 0 0 0 0 0 0 0 0 0 0 0 0 0
0 0 0 0 0 0 0 0 0 0 0 0 0 0 0 0 0 0 0 0 0 0 0 0 0 0 0 0 0 0 0 0 0 0 0 0 0 0 0 0 0 0 0
0 0 0 0 0 0 0 0 0 0 0 0 0 0 0 0 0 0 0 0 0 0 0 0 0 0 0 0 0 0 0 0 0 0 0 0 0 0 0 0 0 0 0
0 0 0 0 0 0 0 0 0 0 0 0 0 0 0 0 0 0 0 0 0 0 0 0 0 0 0 0 0 0 0 0 0 0 0 0 0 0 0 0 0 0 0
0 0 0 0 0 0 0 0 0 0 0 0 0 0 0 0 0 0 0 0 0 0 0 0 0 0 0 0 0 0 0 0 0 0 0 0 0 0 0 0 0 0 0
0 0 0 0 0 0 0 0 0 0 0 0 0 0 0 0 0 0 0 0 0 0 0 0 0 0 0 0 0 0 0 0 0 0 0 0 0 0 0 0 0 0 0
0 0 0 0 0 0 0 0 0 0 0 0 0 0 0 0 0 0 0 0 0 0 0 0 0 0 0 0 0 0 0 0 0 0 0 0 0 0 0 0 0 0 0
0 0 0 0 0 0 0 0 0 0 0 0 0 0 0 0 0 0 0 0 0 0 0 0 0 0 0 0 0 0 0 0 0 0 0 0 0 0 0 0 0 0 0
0 0 0 0 0 0 0 0 0 0 0 0 0 0 0 0 0 0 0 0 0 0 0 0 0 0 0 0 0 0 0 0 0 0 0 0 0 0 0 0 0 0 0
Wind_Speed_500mb
31 35 30 25 25 23 20 19 20 18 17 18 18 21 21 23 27 26 24 21 21 31 34 29 31 32 33 34 35 35 34 31 31 31 33 37 42 47 48 49 49 47 46
37 36 31 28 27 24 20 18 18 16 20 23 24 24 24 23 25 28 26 26 21 29 35 37 38 38 40 41 40 34 28 28 26 24 23 25 28 31 39 43 45 50 48
38 37 33 29 27 24 20 20 17 18 22 24 25 26 25 23 23 26 31 26 21 29 33 40 40 41 44 45 42 38 30 28 28 27 27 31 30 29 25 30 32 32 35
35 36 35 30 27 25 20 19 18 18 20 22 24 25 25 23 24 27 34 28 18 18 26 36 37 39 40 40 38 33 23 25 29 30 33 34 35 32 31 29 26 23 26
33 38 35 32 28 25 20 16 15 17 18 19 21 22 23 24 26 33 31 27 17 18 24 33 34 36 38 37 33 27 22 25 30 32 35 40 40 36 32 31 28 25 25
31 39 35 32 28 25 21 17 13 14 15 16 17 19 21 23 24 30 27 24 13 13 23 27 31 33 35 33 32 24 27 29 34 39 40 41 45 47 47 45 38 41 46
32 38 35 33 30 27 23 19 14 14 13 13 13 15 17 19 21 24 20 15 9 13 20 23 28 31 33 30 24 24 23 31 36 46 47 44 43 41 46 40 45 44 44
29 31 31 33 31 28 24 22 19 15 13 13 12 13 14 15 15 16 15 12 9 13 19 21 25 29 32 30 25 22 30 29 43 40 41 44 36 34 33 37 38 40 41
27 27 30 36 35 31 28 25 22 17 12 11 10 10 10 11 12 11 9 8 13 17 18 19 22 24 26 26 24 12 17 26 28 30 34 33 28 26 29 30 29 29 28
29 27 31 36 38 36 33 28 24 21 18 15 13 10 9 8 9 10 10 10 12 15 17 18 20 21 21 21 16 13 15 21 27 29 28 28 27 24 24 26 27 25 33
40 38 32 37 40 38 35 32 29 26 22 20 17 12 8 6 6 8 13 15 16 17 18 19 19 19 18 18 13 8 15 22 28 32 31 22 22 18 19 29 31 35 39
52 49 36 39 40 42 40 38 35 32 30 25 22 17 13 8 1 4 13 18 20 20 20 19 18 15 10 11 9 12 15 24 28 32 32 34 32 27 21 35 41 43 41
54 54 47 43 42 40 44 43 41 38 35 32 29 25 20 16 9 5 10 16 18 18 18 18 16 14 9 4 5 9 16 24 30 38 41 32 27 17 20 37 38 37 36
56 52 46 45 50 47 42 43 40 43 41 38 36 33 26 21 16 12 10 12 17 16 13 13 12 13 12 7 4 6 16 22 34 46 42 29 22 7 20 32 35 34 33
52 52 53 49 57 52 50 50 50 46 43 41 41 40 37 30 21 23 18 17 20 16 15 15 13 14 14 13 9 11 18 24 36 38 39 34 18 10 30 31 29 29 30
52 54 55 53 54 60 58 57 55 50 45 45 46 44 43 40 28 30 25 24 23 22 21 22 20 18 18 16 12 15 21 26 37 36 36 34 25 16 30 28 27 27 27
56 55 59 57 58 62 64 60 57 53 54 51 49 49 49 47 42 38 32 34 34 35 39 29 30 28 26 24 19 20 21 27 36 40 40 32 33 32 28 24 24 25 24
57 63 63 64 63 68 70 63 63 60 63 61 55 53 56 54 53 50 47 41 43 46 39 40 37 37 33 31 28 27 27 30 37 42 43 42 41 31 19 15 18 23 22
59 64 73 74 72 71 72 72 69 66 64 67 62 61 60 60 59 59 55 55 52 52 49 47 43 42 42 40 35 34 33 35 40 42 45 44 42 38 28 21 19 21 23
56 66 69 78 78 75 73 79 77 67 66 65 66 64 58 60 61 64 65 62 62 62 58 53 53 51 47 46 43 41 42 42 46 47 48 49 46 43 36 30 25 22 21
58 61 71 76 83 82 81 81 89 88 79 71 74 71 69 64 60 61 70 70 75 77 61 63 63 60 53 54 49 46 46 47 51 51 52 51 49 47 42 38 33 28 24
64 62 64 73 79 85 85 84 85 91 92 92 87 82 77 72 65 66 73 73 77 78 76 71 70 65 65 65 60 53 36 45 54 56 58 58 55 52 48 43 39 34 29
66 65 62 65 73 81 84 82 82 86 88 89 93 94 91 82 75 73 74 77 76 83 81 77 80 79 73 75 73 54 25 31 55 63 63 61 59 56 52 48 45 40 37
45 63 63 61 62 71 78 80 82 86 92 95 94 93 91 85 81 76 79 76 83 83 87 82 81 85 87 76 75 80 70 48 37 35 65 67 63 62 58 53 49 45 39
35 44 56 55 58 68 77 80 79 82 84 87 87 89 87 87 84 81 82 85 85 89 89 82 85 96 86 86 90 81 90 64 51 38 44 68 75 70 63 59 54 50 44
29 35 45 53 56 62 71 74 74 75 75 78 83 83 82 80 77 78 80 92 94 94 98 87 80 89 99 84 86 96 94 88 92 68 56 55 72 72 73 67 63 57 51
Wind_Direction_500mb
173 170 163 149 138 125 115 109 96 86 83 84 86 87 94 99 98 99 94 82 70 84 83 86 89 89 96 98 97 95 94 93 97 97 99 100 98 89 83 83 87 84 85
160 169 161 151 141 135 126 119 105 93 87 81 82 87 89 102 106 106 101 98 78 86 83 90 92 93 97 96 92 88 92 89 93 97 102 105 102 99 93 90 92 94 90
165 170 167 159 149 140 135 125 107 94 86 83 82 82 89 100 109 100 105 103 90 82 85 87 91 94 99 99 90 85 87 81 91 94 99 99 100 102 104 97 95 99 96
169 172 170 164 154 150 144 122 107 95 85 85 87 87 89 98 102 101 112 110 98 76 85 88 90 97 106 106 101 96 87 76 83 93 94 93 94 93 99 102 97 97 92
175 175 173 170 162 159 152 135 111 104 100 96 90 89 89 95 103 113 106 121 117 92 83 93 95 99 105 108 107 105 98 86 84 85 94 90 87 86 89 92 92 93 93
178 176 174 174 171 167 164 152 134 122 112 109 98 92 90 93 105 115 122 131 132 99 91 98 97 105 112 112 103 98 90 85 88 85 80 84 85 85 81 83 81 82 86
177 175 178 182 180 177 175 170 157 139 130 120 107 100 95 98 112 122 132 141 130 107 107 109 105 111 119 119 118 111 94 100 92 94 92 90 91 99 102 98 98 102 99
182 175 184 187 188 186 185 182 179 168 153 145 132 118 105 105 117 134 139 138 133 122 119 112 109 119 129 129 128 116 117 115 110 109 102 105 101 101 97 103 105 104 103
187 190 194 194 192 192 194 194 191 186 175 162 150 137 125 117 119 129 136 111 120 125 119 114 119 130 135 136 137 118 105 115 131 126 115 115 115 107 104 106 105 109 103
193 201 200 201 200 198 198 200 198 195 194 185 176 163 140 123 122 130 131 128 121 118 116 117 124 134 135 138 139 121 101 103 112 119 127 128 120 124 125 119 114 103 98
198 206 202 208 207 206 206 206 203 202 202 193 177 167 140 105 96 140 140 135 127 121 120 123 130 135 140 138 136 121 121 114 111 104 106 111 116 128 103 98 103 99 97
202 204 208 205 215 211 210 210 209 207 205 201 188 193 200 201 201 157 148 137 130 125 123 125 131 139 146 137 134 129 136 121 119 116 116 128 121 116 103 102 98 91 89
207 214 219 208 209 218 219 213 214 212 210 204 199 209 210 215 199 195 166 145 137 135 137 143 146 147 154 161 126 129 127 135 130 124 136 137 125 115 99 94 93 91 90
212 220 223 212 206 215 217 219 224 220 214 212 209 211 212 219 221 216 197 184 169 162 168 162 164 163 168 192 178 151 149 151 142 136 133 138 134 106 111 99 92 91 89
216 221 224 217 210 212 217 218 220 221 223 223 218 219 217 212 221 211 218 224 199 198 218 201 200 189 180 187 194 175 167 169 159 159 156 136 161 214 114 108 98 95 91
224 225 228 226 218 214 217 221 223 221 224 228 225 225 224 216 218 222 230 230 229 236 238 226 223 216 202 201 201 188 186 185 171 182 187 191 193 192 119 111 107 103 100
228 230 229 229 223 221 222 222 225 226 226 231 232 229 227 229 224 228 233 234 230 224 227 217 225 220 214 207 209 204 207 204 190 190 198 199 184 186 149 130 119 111 107
235 230 232 233 228 225 226 226 225 229 229 232 234 236 232 233 232 228 224 232 238 226 228 232 224 219 217 214 210 209 208 209 203 195 192 193 198 214 221 207 144 129 121
241 234 230 232 234 229 229 227 228 229 229 229 233 237 238 235 233 231 230 230 229 232 235 233 231 227 222 218 216 217 210 211 212 210 206 211 211 219 232 235 229 177 141
246 239 236 233 234 235 230 228 229 229 229 229 230 234 236 237 235 232 232 233 232 231 233 231 230 225 223 218 213 210 206 209 214 215 215 215 219 225 229 228 222 216 189
248 240 235 234 233 234 231 229 225 224 225 224 231 235 239 238 239 235 235 234 234 235 241 233 232 223 216 218 216 209 205 206 213 217 220 218 223 227 229 228 226 225 224
250 246 239 237 237 236 237 236 232 231 228 232 235 239 242 242 240 236 237 238 239 234 237 240 230 234 221 221 215 208 204 214 214 216 223 226 227 228 228 228 230 228 225
247 244 245 244 241 239 238 238 236 236 236 234 234 238 240 241 239 236 238 243 244 241 241 237 238 244 237 224 224 221 201 216 221 223 221 225 227 229 228 229 230 230 229
251 243 242 245 247 245 242 241 241 239 237 237 238 240 241 237 236 241 245 242 246 244 238 239 249 234 229 236 227 230 232 235 204 211 226 227 228 230 230 230 230 231 230
243 238 238 240 246 247 243 244 246 245 244 246 246 246 245 246 244 240 243 247 245 244 243 247 243 243 243 234 242 239 228 229 226 224 215 220 226 228 229 229 231 232 232
252 239 234 238 242 244 246 247 248 249 249 248 249 251 250 248 246 247 238 239 246 243 246 250 245 242 243 252 243 240 253 240 234 228 224 223 226 226 227 228 229 230 230
Wind_Speed_850mb
31 35 30 25 25 23 20 19 20 18 17 18 18 21 21 23 27 26 24 21 21 31 34 29 31 32 33 34 35 35 34 31 31 31 33 37 42 47 48 49 49 47 46
37 36 31 28 27 24 20 18 18 16 20 23 24 24 24 23 25 28 26 26 21 29 35 37 38 38 40 41 40 34 28 28 26 24 23 25 28 31 39 43 45 50 48
38 37 33 29 27 24 20 20 17 18 22 24 25 26 25 23 23 26 31 26 21 29 33 40 40 41 44 45 42 38 30 28 28 27 27 31 30 29 25 30 32 32 35
35 36 35 30 27 25 20 19 18 18 20 22 24 25 25 23 24 27 34 28 18 18 26 36 37 39 40 40 38 33 23 25 29 30 33 34 35 32 31 29 26 23 26
33 38 35 32 28 25 20 16 15 17 18 19 21 22 23 24 26 33 31 27 17 18 24 33 34 36 38 37 33 27 22 25 30 32 35 40 40 36 32 31 28 25 25
31 39 35 32 28 25 21 17 13 14 15 16 17 19 21 23 24 30 27 24 13 13 23 27 31 33 35 33 32 24 27 29 34 39 40 41 45 47 47 45 38 41 46
32 38 35 33 30 27 23 19 14 14 13 13 13 15 17 19 21 24 20 15 9 13 20 23 28 31 33 30 24 24 23 31 36 46 47 44 43 41 46 40 45 44 44
29 31 31 33 31 28 24 22 19 15 13 13 12 13 14 15 15 16 15 12 9 13 19 21 25 29 32 30 25 22 30 29 43 40 41 44 36 34 33 37 38 40 41
27 27 30 36 35 31 28 25 22 17 12 11 10 10 10 11 12 11 9 8 13 17 18 19 22 24 26 26 24 12 17 26 28 30 34 33 28 26 29 30 29 29 28
29 27 31 36 38 36 33 28 24 21 18 15 13 10 9 8 9 10 10 10 12 15 17 18 20 21 21 21 16 13 15 21 27 29 28 28 27 24 24 26 27 25 33
40 38 32 37 40 38 35 32 29 26 22 20 17 12 8 6 6 8 13 15 16 17 18 19 19 19 18 18 13 8 15 22 28 32 31 22 22 18 19 29 31 35 39
52 49 36 39 40 42 40 38 35 32 30 25 22 17 13 8 1 4 13 18 20 20 20 19 18 15 10 11 9 12 15 24 28 32 32 34 32 27 21 35 41 43 41
54 54 47 43 42 40 44 43 41 38 35 32 29 25 20 16 9 5 10 16 18 18 18 18 16 14 9 4 5 9 16 24 30 38 41 32 27 17 20 37 38 37 36
56 52 46 45 50 47 42 43 40 43 41 38 36 33 26 21 16 12 10 12 17 16 13 13 12 13 12 7 4 6 16 22 34 46 42 29 22 7 20 32 35 34 33
52 52 53 49 57 52 50 50 50 46 43 41 41 40 37 30 21 23 18 17 20 16 15 15 13 14 14 13 9 11 18 24 36 38 39 34 18 10 30 31 29 29 30
52 54 55 53 54 60 58 57 55 50 45 45 46 44 43 40 28 30 25 24 23 22 21 22 20 18 18 16 12 15 21 26 37 36 36 34 25 16 30 28 27 27 27
56 55 59 57 58 62 64 60 57 53 54 51 49 49 49 47 42 38 32 34 34 35 39 29 30 28 26 24 19 20 21 27 36 40 40 32 33 32 28 24 24 25 24
57 63 63 64 63 68 70 63 63 60 63 61 55 53 56 54 53 50 47 41 43 46 39 40 37 37 33 31 28 27 27 30 37 42 43 42 41 31 19 15 18 23 22
59 64 73 74 72 71 72 72 69 66 64 67 62 61 60 60 59 59 55 55 52 52 49 47 43 42 42 40 35 34 33 35 40 42 45 44 42 38 28 21 19 21 23
56 66 69 78 78 75 73 79 77 67 66 65 66 64 58 60 61 64 65 62 62 62 58 53 53 51 47 46 43 41 42 42 46 47 48 49 46 43 36 30 25 22 21
58 61 71 76 83 82 81 81 89 88 79 71 74 71 69 64 60 61 70 70 75 77 61 63 63 60 53 54 49 46 46 47 51 51 52 51 49 47 42 38 33 28 24
64 62 64 73 79 85 85 84 85 91 92 92 87 82 77 72 65 66 73 73 77 78 76 71 70 65 65 65 60 53 36 45 54 56 58 58 55 52 48 43 39 34 29
66 65 62 65 73 81 84 82 82 86 88 89 93 94 91 82 75 73 74 77 76 83 81 77 80 79 73 75 73 54 25 31 55 63 63 61 59 56 52 48 45 40 37
45 63 63 61 62 71 78 80 82 86 92 95 94 93 91 85 81 76 79 76 83 83 87 82 81 85 87 76 75 80 70 48 37 35 65 67 63 62 58 53 49 45 39
35 44 56 55 58 68 77 80 79 82 84 87 87 89 87 87 84 81 82 85 85 89 89 82 85 96 86 86 90 81 90 64 51 38 44 68 75 70 63 59 54 50 44
29 35 45 53 56 62 71 74 74 75 75 78 83 83 82 80 77 78 80 92 94 94 98 87 80 89 99 84 86 96 94 88 92 68 56 55 72 72 73 67 63 57 51
Wind_Direction_850mb
173 170 163 149 138 125 115 109 96 86 83 84 86 87 94 99 98 99 94 82 70 84 83 86 89 89 96 98 97 95 94 93 97 97 99 100 98 89 83 83 87 84 85
160 169 161 151 141 135 126 119 105 93 87 81 82 87 89 102 106 106 101 98 78 86 83 90 92 93 97 96 92 88 92 89 93 97 102 105 102 99 93 90 92 94 90
165 170 167 159 149 140 135 125 107 94 86 83 82 82 89 100 109 100 105 103 90 82 85 87 91 94 99 99 90 85 87 81 91 94 99 99 100 102 104 97 95 99 96
169 172 170 164 154 150 144 122 107 95 85 85 87 87 89 98 102 101 112 110 98 76 85 88 90 97 106 106 101 96 87 76 83 93 94 93 94 93 99 102 97 97 92
175 175 173 170 162 159 152 135 111 104 100 96 90 89 89 95 103 113 106 121 117 92 83 93 95 99 105 108 107 105 98 86 84 85 94 90 87 86 89 92 92 93 93
178 176 174 174 171 167 164 152 134 122 112 109 98 92 90 93 105 115 122 131 132 99 91 98 97 105 112 112 103 98 90 85 88 85 80 84 85 85 81 83 81 82 86
177 175 178 182 180 177 175 170 157 139 130 120 107 100 95 98 112 122 132 141 130 107 107 109 105 111 119 119 118 111 94 100 92 94 92 90 91 99 102 98 98 102 99
182 175 184 187 188 186 185 182 179 168 153 145 132 118 105 105 117 134 139 138 133 122 119 112 109 119 129 129 128 116 117 115 110 109 102 105 101 101 97 103 105 104 103
187 190 194 194 192 192 194 194 191 186 175 162 150 137 125 117 119 129 136 111 120 125 119 114 119 130 135 136 137 118 105 115 131 126 115 115 115 107 104 106 105 109 103
193 201 200 201 200 198 198 200 198 195 194 185 176 163 140 123 122 130 131 128 121 118 116 117 124 134 135 138 139 121 101 103 112 119 127 128 120 124 125 119 114 103 98
198 206 202 208 207 206 206 206 203 202 202 193 177 167 140 105 96 140 140 135 127 121 120 123 130 135 140 138 136 121 121 114 111 104 106 111 116 128 103 98 103 99 97
202 204 208 205 215 211 210 210 209 207 205 201 188 193 200 201 201 157 148 137 130 125 123 125 131 139 146 137 134 129 136 121 119 116 116 128 121 116 103 102 98 91 89
207 214 219 208 209 218 219 213 214 212 210 204 199 209 210 215 199 195 166 145 137 135 137 143 146 147 154 161 126 129 127 135 130 124 136 137 125 115 99 94 93 91 90
212 220 223 212 206 215 217 219 224 220 214 212 209 211 212 219 221 216 197 184 169 162 168 162 164 163 168 192 178 151 149 151 142 136 133 138 134 106 111 99 92 91 89
216 221 224 217 210 212 217 218 220 221 223 223 218 219 217 212 221 211 218 224 199 198 218 201 200 189 180 187 194 175 167 169 159 159 156 136 161 214 114 108 98 95 91
224 225 228 226 218 214 217 221 223 221 224 228 225 225 224 216 218 222 230 230 229 236 238 226 223 216 202 201 201 188 186 185 171 182 187 191 193 192 119 111 107 103 100
228 230 229 229 223 221 222 222 225 226 226 231 232 229 227 229 224 228 233 234 230 224 227 217 225 220 214 207 209 204 207 204 190 190 198 199 184 186 149 130 119 111 107
235 230 232 233 228 225 226 226 225 229 229 232 234 236 232 233 232 228 224 232 238 226 228 232 224 219 217 214 210 209 208 209 203 195 192 193 198 214 221 207 144 129 121
241 234 230 232 234 229 229 227 228 229 229 229 233 237 238 235 233 231 230 230 229 232 235 233 231 227 222 218 216 217 210 211 212 210 206 211 211 219 232 235 229 177 141
246 239 236 233 234 235 230 228 229 229 229 229 230 234 236 237 235 232 232 233 232 231 233 231 230 225 223 218 213 210 206 209 214 215 215 215 219 225 229 228 222 216 189
248 240 235 234 233 234 231 229 225 224 225 224 231 235 239 238 239 235 235 234 234 235 241 233 232 223 216 218 216 209 205 206 213 217 220 218 223 227 229 228 226 225 224
250 246 239 237 237 236 237 236 232 231 228 232 235 239 242 242 240 236 237 238 239 234 237 240 230 234 221 221 215 208 204 214 214 216 223 226 227 228 228 228 230 228 225
247 244 245 244 241 239 238 238 236 236 236 234 234 238 240 241 239 236 238 243 244 241 241 237 238 244 237 224 224 221 201 216 221 223 221 225 227 229 228 229 230 230 229
251 243 242 245 247 245 242 241 241 239 237 237 238 240 241 237 236 241 245 242 246 244 238 239 249 234 229 236 227 230 232 235 204 211 226 227 228 230 230 230 230 231 230
243 238 238 240 246 247 243 244 246 245 244 246 246 246 245 246 244 240 243 247 245 244 243 247 243 243 243 234 242 239 228 229 226 224 215 220 226 228 229 229 231 232 232
252 239 234 238 242 244 246 247 248 249 249 248 249 251 250 248 246 247 238 239 246 243 246 250 245 242 243 252 243 240 253 240 234 228 224 223 226 226 227 228 229 230 230